This demonstration page uses our WeatherBlox Daily Observations layout. Learn more.

Left ArrowRight Arrow

Hourly Observations for January 30, 2020

Temp ( °F °C ) Dew Point ( °F °C ) Humidity (%) Winds ( mph kmh ) Pressure ( in mb ) Visibility ( mi km ) Precip ( " mm )
12:53 am 00:53 Cloudy 33 0.6 27 -2.8 78 78 NE 3 6 30.18 1022 10 16 0.00 0.00
1:53 am 01:53 Cloudy 33 0.6 26 -3.3 75 75 Calm 30.18 1022 10 16 0.00 0.00
2:03 am 02:03 Cloudy 33 0.6 26 -3.3 75 75 Calm 30.20 1023 10 16 0.00 0.00
2:53 am 02:53 Cloudy 33 0.6 25 -3.9 72 72 Calm 30.18 1022 10 16 0.00 0.00
3:53 am 03:53 Cloudy 33 0.6 25 -3.9 72 72 Calm 30.19 1022 10 16 0.00 0.00
4:53 am 04:53 Cloudy 33 0.6 24 -4.4 70 70 NE 3 6 30.18 1022 10 16 0.00 0.00
5:53 am 05:53 Cloudy 33 0.6 25 -3.9 72 72 Calm 30.19 1022 10 16 0.00 0.00
6:53 am 06:53 Cloudy 33 0.6 24 -4.4 70 70 Calm 30.21 1023 10 16 0.00 0.00
7:53 am 07:53 Cloudy 33 0.6 25 -3.9 72 72 Calm 30.22 1024 10 16 0.00 0.00
8:53 am 08:53 Cloudy 33 0.6 25 -3.9 72 72 Calm 30.24 1024 10 16 0.00 0.00
9:53 am 09:53 Cloudy 34 1.1 25 -3.9 70 70 ENE 5 7 30.25 1025 10 16 0.00 0.00
10:53 am 10:53 Cloudy 35 1.7 25 -3.9 67 67 E 5 7 30.26 1025 10 16 0.00 0.00
11:53 am 11:53 Cloudy 36 2.2 25 -3.9 64 64 E 3 6 30.25 1025 10 16 0.00 0.00
12:53 pm 12:53 Cloudy 37 2.8 25 -3.9 62 62 NNE 3 6 30.22 1024 10 16 0.00 0.00
1:53 pm 13:53 Cloudy 37 2.8 25 -3.9 62 62 ESE 5 7 30.20 1023 10 16 0.00 0.00
2:53 pm 14:53 Cloudy 38 3.3 23 -5 55 55 Calm 30.20 1023 10 16 0.00 0.00
3:53 pm 15:53 Cloudy 38 3.3 24 -4.4 57 57 E 3 6 30.21 1023 10 16 0.00 0.00
4:53 pm 16:53 Cloudy 38 3.3 24 -4.4 57 57 NE 3 6 30.21 1023 10 16 0.00 0.00
5:53 pm 17:53 Cloudy 37 2.8 25 -3.9 62 62 NE 5 7 30.22 1023 10 16 0.00 0.00
6:53 pm 18:53 Cloudy 36 2.2 26 -3.3 67 67 NE 5 7 30.24 1024 10 16 0.00 0.00
7:53 pm 19:53 Cloudy 35 1.7 26 -3.3 70 70 E 5 7 30.24 1024 10 16 0.00 0.00
8:53 pm 20:53 Cloudy 35 1.7 26 -3.3 70 70 E 5 7 30.24 1024 10 16 0.00 0.00
9:53 pm 21:53 Cloudy 34 1.1 26 -3.3 73 73 E 5 7 30.23 1024 10 16 0.00 0.00
10:53 pm 22:53 Cloudy 34 1.1 26 -3.3 73 73 E 3 6 30.24 1024 10 16 0.00 0.00
11:53 pm 23:53 Cloudy 34 1.1 26 -3.3 73 73 E 5 7 30.23 1024 10 16 0.00 0.00

Powered by AerisWeather